| time (UTC) | temp F | wind direction | speed MPH | gust MPH | rain 1hr in | rain 24hr in | rain mn in | humidity % | barometer mb |
| 20260505041502 | 66 | 184 | 4.0 | 16.0 | 0.00 | 0.00 | 0.00 | 53 | 1012.2 |
| 20260505041003 | 66 | 184 | 6.0 | 15.0 | 0.00 | 0.00 | 0.00 | 53 | 1012.2 |
| 20260505040503 | 67 | 165 | 4.0 | 17.0 | 0.00 | 0.00 | 0.00 | 53 | 1012.2 |
| 20260505040004 | 67 | 180 | 6.0 | 17.0 | 0.00 | 0.00 | 0.00 | 52 | 1012.2 |
| 20260505035503 | 67 | 172 | 6.0 | 20.0 | 0.00 | 0.00 | 0.00 | 53 | 1012.2 |
| 20260505035003 | 67 | 165 | 5.0 | 20.0 | 0.00 | 0.00 | 0.00 | 53 | 1012.2 |
| 20260505034511 | 67 | 185 | 6.0 | 15.0 | 0.00 | 0.00 | 0.00 | 53 | 1012.2 |
| 20260505034005 | 67 | 203 | 4.0 | 13.0 | 0.00 | 0.00 | 0.00 | 53 | 1012.2 |
| 20260505033507 | 67 | 216 | 6.0 | 13.0 | 0.00 | 0.00 | 0.00 | 53 | 1012.3 |
| 20260505033016 | 67 | 203 | 4.0 | 20.0 | 0.00 | 0.00 | 0.00 | 54 | 1012.2 |
| 20260505032504 | 67 | 212 | 5.0 | 20.0 | 0.00 | 0.00 | 0.00 | 54 | 1012.2 |
| 20260505032007 | 67 | 174 | 5.0 | 15.0 | 0.00 | 0.00 | 0.00 | 55 | 1012.2 |
| 20260505031519 | 67 | 153 | 5.0 | 11.0 | 0.00 | 0.00 | 0.00 | 55 | 1012.2 |
| 20260505031010 | 66 | 182 | 4.0 | 11.0 | 0.00 | 0.00 | 0.00 | 55 | 1012.2 |
| 20260505030504 | 66 | 169 | 3.0 | 10.0 | 0.00 | 0.00 | 0.00 | 56 | 1012.3 |
| 20260505030002 | 66 | 182 | 4.0 | 10.0 | 0.00 | 0.00 | 0.00 | 56 | 1012.3 |
| 20260505025503 | 66 | 190 | 4.0 | 10.0 | 0.00 | 0.00 | 0.00 | 57 | 1012.1 |
| 20260505025004 | 66 | 162 | 4.0 | 10.0 | 0.00 | 0.00 | 0.00 | 57 | 1012.0 |
| 20260505024504 | 66 | 171 | 4.0 | 9.0 | 0.00 | 0.00 | 0.00 | 58 | 1012.1 |
| 20260505024004 | 66 | 198 | 3.0 | 11.0 | 0.00 | 0.00 | 0.00 | 58 | 1012.1 |
| 20260505023503 | 66 | 188 | 3.0 | 11.0 | 0.00 | 0.00 | 0.00 | 57 | 1012.1 |
| 20260505023010 | 66 | 171 | 3.0 | 8.0 | 0.00 | 0.00 | 0.00 | 57 | 1012.1 |
| 20260505022503 | 66 | 172 | 3.0 | 8.0 | 0.00 | 0.00 | 0.00 | 57 | 1012.1 |
| 20260505022006 | 66 | 165 | 4.0 | 7.0 | 0.00 | 0.00 | 0.00 | 57 | 1012.2 |
| 20260505021525 | 67 | 155 | 3.0 | 8.0 | 0.00 | 0.00 | 0.00 | 55 | 1012.1 |
| 20260505021007 | 67 | 163 | 3.0 | 8.0 | 0.00 | 0.00 | 0.00 | 55 | 1012.1 |
| 20260505020503 | 67 | 174 | 2.0 | 8.0 | 0.00 | 0.00 | 0.00 | 54 | 1012.1 |
| 20260505020022 | 68 | 234 | 3.0 | 11.0 | 0.00 | 0.00 | 0.00 | 54 | 1012.1 |
| 20260505015512 | 68 | 172 | 4.0 | 11.0 | 0.00 | 0.00 | 0.00 | 53 | 1012.1 |
| 20260505015007 | 68 | 206 | 2.0 | 9.0 | 0.00 | 0.00 | 0.00 | 52 | 1012.1 |
| 20260505014504 | 69 | 197 | 4.0 | 16.0 | 0.00 | 0.00 | 0.00 | 51 | 1012.1 |
| 20260505014003 | 69 | 204 | 7.0 | 16.0 | 0.00 | 0.00 | 0.00 | 51 | 1012.0 |
| 20260505013503 | 69 | 214 | 5.0 | 12.0 | 0.00 | 0.00 | 0.00 | 52 | 1012.1 |
| 20260505013008 | 69 | 202 | 6.0 | 12.0 | 0.00 | 0.00 | 0.00 | 52 | 1012.2 |
| 20260505012506 | 69 | 189 | 6.0 | 14.0 | 0.00 | 0.00 | 0.00 | 52 | 1012.1 |
| 20260505012004 | 69 | 167 | 7.0 | 14.0 | 0.00 | 0.00 | 0.00 | 53 | 1012.1 |
| 20260505011527 | 69 | 184 | 5.0 | 10.0 | 0.00 | 0.00 | 0.00 | 53 | 1011.9 |
| 20260505011008 | 69 | 190 | 4.0 | 10.0 | 0.00 | 0.00 | 0.00 | 53 | 1012.0 |
| 20260505010505 | 69 | 216 | 2.0 | 12.0 | 0.00 | 0.00 | 0.00 | 52 | 1012.0 |
| 20260505010020 | 69 | 202 | 4.0 | 16.0 | 0.00 | 0.00 | 0.00 | 52 | 1011.9 |
| 20260505005506 | 69 | 218 | 7.0 | 16.0 | 0.00 | 0.00 | 0.00 | 52 | 1011.9 |
| 20260505005008 | 69 | 203 | 4.0 | 11.0 | 0.00 | 0.00 | 0.00 | 52 | 1011.9 |
| 20260505004533 | 69 | 210 | 5.0 | 11.0 | 0.00 | 0.00 | 0.00 | 52 | 1011.8 |
| 20260505004007 | 69 | 205 | 4.0 | 9.0 | 0.00 | 0.00 | 0.00 | 52 | 1011.7 |
| 20260505003505 | 70 | 238 | 1.0 | 7.0 | 0.00 | 0.00 | 0.00 | 52 | 1011.7 |
| 20260505003025 | 70 | 201 | 2.0 | 8.0 | 0.00 | 0.00 | 0.00 | 51 | 1011.7 |
| 20260505002502 | 71 | 216 | 2.0 | 8.0 | 0.00 | 0.00 | 0.00 | 51 | 1011.7 |
| 20260505002002 | 71 | 198 | 3.0 | 9.0 | 0.00 | 0.00 | 0.00 | 50 | 1011.7 |
| 20260505001521 | 72 | 210 | 2.0 | 14.0 | 0.00 | 0.00 | 0.00 | 50 | 1011.7 |
| 20260505001002 | 72 | 206 | 5.0 | 14.0 | 0.00 | 0.00 | 0.00 | 48 | 1011.7 |
| 20260505000505 | 72 | 182 | 4.0 | 13.0 | 0.00 | 0.00 | 0.00 | 48 | 1011.7 |
| 20260505000027 | 72 | 256 | 5.0 | 12.0 | 0.00 | 0.00 | 0.00 | 49 | 1011.7 |
| 20260504235505 | 72 | 198 | 3.0 | 13.0 | 0.00 | 0.00 | 0.00 | 48 | 1011.7 |
| 20260504235008 | 73 | 194 | 3.0 | 13.0 | 0.00 | 0.00 | 0.00 | 49 | 1011.8 |
| 20260504234519 | 73 | 213 | 3.0 | 12.0 | 0.00 | 0.00 | 0.00 | 47 | 1011.8 |
| 20260504234008 | 74 | 168 | 3.0 | 14.0 | 0.00 | 0.00 | 0.00 | 47 | 1011.8 |
| 20260504233507 | 74 | 228 | 8.0 | 16.0 | 0.00 | 0.00 | 0.00 | 46 | 1011.9 |
| 20260504233026 | 74 | 221 | 3.0 | 16.0 | 0.00 | 0.00 | 0.00 | 47 | 1012.0 |
| 20260504232506 | 75 | 192 | 6.0 | 17.0 | 0.00 | 0.00 | 0.00 | 46 | 1012.0 |
| 20260504232009 | 75 | 232 | 5.0 | 18.0 | 0.00 | 0.00 | 0.00 | 46 | 1011.9 |
| 20260504231526 | 75 | 198 | 11.0 | 18.0 | 0.00 | 0.00 | 0.00 | 45 | 1012.0 |
| 20260504231007 | 75 | 194 | 5.0 | 15.0 | 0.00 | 0.00 | 0.00 | 47 | 1012.0 |
| 20260504230503 | 75 | 169 | 7.0 | 15.0 | 0.00 | 0.00 | 0.00 | 46 | 1011.8 |
| 20260504230017 | 75 | 192 | 7.0 | 21.0 | 0.00 | 0.00 | 0.00 | 46 | 1012.0 |
| 20260504225502 | 76 | 200 | 10.0 | 21.0 | 0.00 | 0.00 | 0.00 | 44 | 1011.8 |
| 20260504225006 | 76 | 212 | 8.0 | 15.0 | 0.00 | 0.00 | 0.00 | 44 | 1011.8 |
| 20260504224518 | 76 | 209 | 6.0 | 14.0 | 0.00 | 0.00 | 0.00 | 44 | 1011.8 |
| 20260504224005 | 76 | 184 | 5.0 | 18.0 | 0.00 | 0.00 | 0.00 | 44 | 1011.8 |
| 20260504223508 | 77 | 192 | 10.0 | 18.0 | 0.00 | 0.00 | 0.00 | 43 | 1011.8 |
| 20260504223023 | 77 | 152 | 9.0 | 18.0 | 0.00 | 0.00 | 0.00 | 43 | 1011.8 |
| 20260504222506 | 77 | 198 | 5.0 | 20.0 | 0.00 | 0.00 | 0.00 | 43 | 1011.8 |
| 20260504222014 | 77 | 205 | 9.0 | 20.0 | 0.00 | 0.00 | 0.00 | 42 | 1011.8 |
| 20260504221529 | 78 | 163 | 5.0 | 13.0 | 0.00 | 0.00 | 0.00 | 43 | 1011.8 |
| 20260504221007 | 78 | 154 | 5.0 | 25.0 | 0.00 | 0.00 | 0.00 | 44 | 1011.7 |
| 20260504220509 | 77 | 182 | 6.0 | 25.0 | 0.00 | 0.00 | 0.00 | 43 | 1011.8 |
| 20260504220026 | 77 | 223 | 13.0 | 24.0 | 0.00 | 0.00 | 0.00 | 43 | 1011.8 |
| 20260504215510 | 77 | 222 | 13.0 | 21.0 | 0.00 | 0.00 | 0.00 | 42 | 1011.7 |
| 20260504215009 | 77 | 199 | 6.0 | 22.0 | 0.00 | 0.00 | 0.00 | 43 | 1011.7 |
| 20260504214515 | 78 | 165 | 8.0 | 22.0 | 0.00 | 0.00 | 0.00 | 45 | 1011.7 |
| 20260504214008 | 78 | 214 | 4.0 | 17.0 | 0.00 | 0.00 | 0.00 | 45 | 1011.5 |
| 20260504213506 | 78 | 206 | 7.0 | 15.0 | 0.00 | 0.00 | 0.00 | 45 | 1011.5 |
| 20260504213043 | 78 | 173 | 5.0 | 17.0 | 0.00 | 0.00 | 0.00 | 46 | 1011.6 |
| 20260504212507 | 78 | 221 | 5.0 | 19.0 | 0.00 | 0.00 | 0.00 | 47 | 1011.6 |
| 20260504212007 | 77 | 188 | 7.0 | 19.0 | 0.00 | 0.00 | 0.00 | 44 | 1011.6 |
| 20260504211525 | 78 | 197 | 9.0 | 15.0 | 0.00 | 0.00 | 0.00 | 46 | 1011.6 |
| 20260504211012 | 78 | 213 | 7.0 | 13.0 | 0.00 | 0.00 | 0.00 | 43 | 1011.6 |
| 20260504210508 | 78 | 169 | 4.0 | 14.0 | 0.00 | 0.00 | 0.00 | 48 | 1011.6 |
| 20260504210027 | 78 | 159 | 6.0 | 16.0 | 0.00 | 0.00 | 0.00 | 45 | 1011.7 |
| 20260504205507 | 78 | 202 | 8.0 | 16.0 | 0.00 | 0.00 | 0.00 | 44 | 1011.7 |
| 20260504205006 | 78 | 207 | 6.0 | 17.0 | 0.00 | 0.00 | 0.00 | 47 | 1011.8 |
| 20260504204527 | 77 | 209 | 6.0 | 21.0 | 0.00 | 0.00 | 0.00 | 47 | 1012.0 |
| 20260504204010 | 79 | 202 | 10.0 | 21.0 | 0.00 | 0.00 | 0.00 | 44 | 1012.1 |
| 20260504203511 | 78 | 223 | 7.0 | 17.0 | 0.00 | 0.00 | 0.00 | 44 | 1012.1 |
| 20260504203018 | 78 | 269 | 9.0 | 17.0 | 0.00 | 0.00 | 0.00 | 44 | 1012.3 |
| 20260504202507 | 76 | 134 | 3.0 | 24.0 | 0.00 | 0.00 | 0.00 | 50 | 1012.2 |
| 20260504202007 | 77 | 225 | 7.0 | 24.0 | 0.00 | 0.00 | 0.00 | 45 | 1012.4 |
| 20260504201505 | 77 | 223 | 12.0 | 23.0 | 0.00 | 0.00 | 0.00 | 44 | 1012.5 |
| 20260504201002 | 77 | 204 | 9.0 | 19.0 | 0.00 | 0.00 | 0.00 | 42 | 1012.4 |
| 20260504200504 | 77 | 198 | 7.0 | 15.0 | 0.00 | 0.00 | 0.00 | 45 | 1012.5 |
| 20260504200004 | 77 | 195 | 4.0 | 15.0 | 0.00 | 0.00 | 0.00 | 50 | 1012.7 |
| 20260504195502 | 77 | 204 | 8.0 | 15.0 | 0.00 | 0.00 | 0.00 | 47 | 1012.8 |
| 20260504195002 | 78 | 184 | 5.0 | 12.0 | 0.00 | 0.00 | 0.00 | 48 | 1012.8 |
| 20260504194514 | 78 | 228 | 6.0 | 14.0 | 0.00 | 0.00 | 0.00 | 48 | 1012.8 |
| 20260504194002 | 77 | 154 | 8.0 | 21.0 | 0.00 | 0.00 | 0.00 | 49 | 1012.9 |
| 20260504193505 | 76 | 230 | 7.0 | 21.0 | 0.00 | 0.00 | 0.00 | 48 | 1012.9 |
| 20260504193016 | 77 | 194 | 4.0 | 15.0 | 0.00 | 0.00 | 0.00 | 48 | 1013.0 |
| 20260504192506 | 78 | 191 | 6.0 | 15.0 | 0.00 | 0.00 | 0.00 | 48 | 1013.2 |
| 20260504192006 | 77 | 138 | 6.0 | 14.0 | 0.00 | 0.00 | 0.00 | 48 | 1013.2 |
| 20260504191520 | 77 | 121 | 5.0 | 14.0 | 0.00 | 0.00 | 0.00 | 49 | 1013.2 |
| 20260504191008 | 78 | 193 | 5.0 | 13.0 | 0.00 | 0.00 | 0.00 | 49 | 1013.3 |
| 20260504190507 | 77 | 180 | 5.0 | 15.0 | 0.00 | 0.00 | 0.00 | 49 | 1013.3 |
| 20260504190021 | 77 | 206 | 8.0 | 15.0 | 0.00 | 0.00 | 0.00 | 50 | 1013.3 |
| 20260504185506 | 78 | 183 | 6.0 | 15.0 | 0.00 | 0.00 | 0.00 | 49 | 1013.4 |
| 20260504185002 | 77 | 148 | 6.0 | 14.0 | 0.00 | 0.00 | 0.00 | 50 | 1013.5 |
| 20260504184514 | 77 | 207 | 7.0 | 14.0 | 0.00 | 0.00 | 0.00 | 51 | 1013.5 |
| 20260504184003 | 78 | 208 | 4.0 | 15.0 | 0.00 | 0.00 | 0.00 | 48 | 1013.5 |
| 20260504183503 | 77 | 271 | 4.0 | 19.0 | 0.00 | 0.00 | 0.00 | 49 | 1013.6 |
| 20260504183019 | 76 | 208 | 5.0 | 19.0 | 0.00 | 0.00 | 0.00 | 51 | 1013.6 |
| 20260504182509 | 76 | 202 | 7.0 | 16.0 | 0.00 | 0.00 | 0.00 | 51 | 1013.6 |
| 20260504182007 | 75 | 209 | 8.0 | 16.0 | 0.00 | 0.00 | 0.00 | 50 | 1013.6 |
| 20260504181519 | 76 | 175 | 8.0 | 13.0 | 0.00 | 0.00 | 0.00 | 51 | 1013.6 |
| 20260504181007 | 76 | 217 | 6.0 | 15.0 | 0.00 | 0.00 | 0.00 | 50 | 1013.6 |
| 20260504180507 | 77 | 210 | 7.0 | 16.0 | 0.00 | 0.00 | 0.00 | 49 | 1013.8 |
| 20260504180022 | 76 | 216 | 8.0 | 16.0 | 0.00 | 0.00 | 0.00 | 50 | 1013.7 |
| 20260504175506 | 77 | 175 | 7.0 | 13.0 | 0.00 | 0.00 | 0.00 | 52 | 1013.7 |
| 20260504175009 | 76 | 180 | 6.0 | 13.0 | 0.00 | 0.00 | 0.00 | 51 | 1013.9 |
| 20260504174526 | 76 | 215 | 4.0 | 11.0 | 0.00 | 0.00 | 0.00 | 50 | 1014.0 |
| 20260504174002 | 75 | 137 | 6.0 | 16.0 | 0.00 | 0.00 | 0.00 | 54 | 1014.0 |
| 20260504173506 | 75 | 219 | 10.0 | 16.0 | 0.00 | 0.00 | 0.00 | 51 | 1014.0 |
| 20260504173022 | 76 | 178 | 8.0 | 14.0 | 0.00 | 0.00 | 0.00 | 50 | 1014.2 |
| 20260504172503 | 75 | 219 | 6.0 | 13.0 | 0.00 | 0.00 | 0.00 | 52 | 1014.1 |
| 20260504172006 | 75 | 225 | 7.0 | 15.0 | 0.00 | 0.00 | 0.00 | 53 | 1014.2 |
| 20260504171521 | 75 | 135 | 8.0 | 15.0 | 0.00 | 0.00 | 0.00 | 53 | 1014.3 |
| 20260504171005 | 75 | 195 | 5.0 | 15.0 | 0.00 | 0.00 | 0.00 | 51 | 1014.4 |
| 20260504170510 | 74 | 161 | 7.0 | 21.0 | 0.00 | 0.00 | 0.00 | 54 | 1014.4 |
| 20260504151013 | 68 | 220 | 7.0 | 16.0 | 0.00 | 0.00 | 0.00 | 56 | 1015.6 |
| 20260504150507 | 68 | 183 | 9.0 | 16.0 | 0.00 | 0.00 | 0.00 | 56 | 1015.6 |
| 20260504141011 | 64 | 190 | 7.0 | 17.0 | 0.00 | 0.00 | 0.00 | 56 | 1016.2 |
| 20260504140509 | 64 | 129 | 8.0 | 17.0 | 0.00 | 0.00 | 0.00 | 56 | 1016.3 |
| 20260504130510 | 60 | 162 | 6.0 | 18.0 | 0.00 | 0.00 | 0.00 | 58 | 1016.2 |
| 20260504110503 | 57 | 219 | 7.0 | 17.0 | 0.00 | 0.00 | 0.00 | 57 | 1015.5 |
| 20260504100505 | 56 | 174 | 3.0 | 6.0 | 0.00 | 0.00 | 0.00 | 59 | 1015.5 |
| 20260504082002 | 54 | 171 | 4.0 | 7.0 | 0.00 | 0.00 | 0.00 | 61 | 1015.9 |
| 20260504081515 | 54 | 160 | 4.0 | 11.0 | 0.00 | 0.00 | 0.00 | 61 | 1016.0 |
| 20260504081004 | 54 | 204 | 6.0 | 11.0 | 0.00 | 0.00 | 0.00 | 61 | 1016.0 |
| 20260504080503 | 53 | 116 | 4.0 | 11.0 | 0.00 | 0.00 | 0.00 | 62 | 1016.0 |
| 20260504050503 | 54 | 196 | 3.0 | 10.0 | 0.00 | 0.01 | 0.00 | 63 | 1017.0 |
| 20260504050012 | 54 | 202 | 4.0 | 8.0 | 0.00 | 0.01 | 0.00 | 63 | 1017.0 |
| 20260504045504 | 54 | 156 | 3.0 | 8.0 | 0.00 | 0.01 | 0.01 | 63 | 1016.9 |
| 20260504045007 | 54 | 203 | 3.0 | 9.0 | 0.00 | 0.01 | 0.01 | 63 | 1016.8 |
| 20260504044533 | 53 | 211 | 4.0 | 12.0 | 0.00 | 0.01 | 0.01 | 63 | 1016.9 |
| 20260504044006 | 53 | 206 | 3.0 | 12.0 | 0.00 | 0.01 | 0.01 | 64 | 1016.9 |
| 20260504043504 | 52 | 215 | 2.0 | 6.0 | 0.00 | 0.01 | 0.01 | 65 | 1016.9 |